Flag Weather past 2 weeks in Kassel, Hesse, Germany

Now
36 °F

Overcast.


Feels Like: 29 °F
Forecast: 31 / 37 °F
Wind: 8 mph from Southeast

Location: Fritzlar Airport

Current Time: Nov 29, 2014 at 3:29:09 AM

Latest Report: Nov 29, 2014 at 2:20 AM


Visibility: 5 mi

Pressure: 30.01 "Hg

Humidity: 87%

Dew point: 32 °F

Location of KasselLocation

Historic Weather in Kassel — Graph

°F

Kassel temperature yesterday

Maximum temperature yesterday: 37 °F (at 12:20 AM)
Minimum temperature yesterday: 32 °F (at 5:20 AM)
Average temperature yesterday: 36 °F

Past Weeks' High & Low Weather Summary

 TemperatureHumidityPressure
High54 °F (Nov 14, 12:20 PM)100% (Nov 14, 9:20 PM)30.36 "Hg (Nov 14, 9:20 PM)
Low28 °F (Nov 25, 1:20 AM)62% (Nov 24, 2:20 PM)29.50 "Hg (Nov 16, 4:20 AM)
Average42 °F90%30.00 "Hg
* Reported Nov 14 2:20 AM — Nov 29 2:20 AM, Kassel, Weather by CustomWeather, © 2014

Note: Actual official high and low records may vary slightly from our data, if they occured in-between our weather recording intervals... More about our weather records

Advertising

Kassel weather history for previous 24 hours

 ConditionsComfort  
Time TempWeatherWind HumidityBarometerVisibility
2:20 AM
Nov 29
36 °FOvercast.8 mph87%30.01 "Hg5 mi
1:20 AM36 °FOvercast.8 mph87%30.01 "Hg5 mi
12:20 AM36 °FOvercast.12 mph87%30.01 "Hg5 mi
11:20 PM
Nov 28
36 °FOvercast.6 mph87%30.01 "Hg5 mi
10:20 PM36 °FOvercast.6 mph87%30.01 "Hg5 mi
9:20 PM36 °FOvercast.6 mph87%29.98 "Hg5 mi
8:20 PM36 °FOvercast.8 mph87%29.98 "Hg6 mi
7:20 PM36 °FOvercast.7 mph87%29.98 "Hg5 mi
6:20 PM36 °FOvercast.9 mph87%29.98 "Hg5 mi
5:20 PM36 °FPassing clouds.6 mph87%29.95 "HgN/A
4:20 PM37 °FOvercast.7 mph81%29.95 "HgN/A
3:20 PM37 °FOvercast.8 mph81%29.92 "Hg5 mi
2:20 PM37 °FOvercast.7 mph81%29.92 "Hg5 mi
1:20 PM37 °FOvercast.10 mph87%29.92 "Hg4 mi
12:20 PM37 °FPartly sunny.12 mph87%29.92 "Hg4 mi
11:59 AM37 °FPartly sunny.10 mph87%29.92 "Hg4 mi
11:20 AM37 °FFog.10 mph87%29.95 "Hg3 mi
10:20 AM37 °FFog.7 mph87%29.92 "Hg3 mi
9:20 AM37 °FPartly sunny.13 mph87%29.92 "Hg4 mi
8:20 AM37 °FPartly sunny.5 mph93%29.92 "Hg4 mi
7:20 AM34 °FFog.2 mph100%29.89 "Hg3 mi
6:20 AM32 °FIce fog.2 mph100%29.89 "Hg3 mi
5:20 AM32 °FFog.2 mph100%29.89 "Hg2 mi
Weather by CustomWeather, © 2014

See weather overviewHow to use our weather pages